DateTimeUTC,F1_A11,F1_S11,BsB_S11,BsG_S11,BsR_S11,BbsB_S11,BbsG_S11,BbsR_S11,BaB_A11,BaG_A11,BaR_A11,Tu_S11,T_S11,Uu_S11,U_S11,P_S11,T1_A11
2021-07-02T01:00:00Z,00000200,20000000,,,,,,,-000.03,-000.21,0000.20,18.8,25.7,03.3,02.2,0675.2,31.1
2021-07-02T01:01:00Z,00000200,20000000,,,,,,,-000.02,0000.12,-000.29,18.8,25.7,03.3,02.2,0675.2,31.1
2021-07-02T01:02:00Z,00000200,20000000,,,,,,,-000.03,-000.10,0000.02,18.8,25.7,03.3,02.1,0675.2,31.1
2021-07-02T01:03:00Z,00000200,60000000,,,,,,,-000.10,0000.05,-000.26,18.8,25.7,03.2,02.1,0675.2,31.1
2021-07-02T01:04:00Z,00000200,40000000,-000.09,0000.35,-000.24,0000.55,0000.18,-000.08,-000.38,-000.25,0000.26,18.7,25.4,03.2,02.1,0676.1,31.1
2021-07-02T01:05:00Z,00000200,00000000,0000.15,0000.15,0000.31,0000.30,0000.11,-000.04,0000.30,-000.00,-000.23,18.7,25.3,03.3,02.2,0676.1,31.1
2021-07-02T01:06:00Z,00000200,00000000,0000.91,-000.08,-000.02,0000.33,0000.32,0000.17,0000.13,0000.19,-000.03,18.6,25.2,03.2,02.1,0676.1,31.1
2021-07-02T01:07:00Z,00000200,00000000,0000.09,-000.08,0000.52,-000.50,0000.15,0000.33,-000.14,-000.60,0000.24,18.6,25.2,03.3,02.2,0676.1,31.1
2021-07-02T01:08:00Z,00000200,00000000,0000.02,-000.01,0000.23,0000.02,0000.19,0000.16,0000.03,0000.27,-000.02,18.6,25.2,03.3,02.2,0676.1,31.1
2021-07-02T01:09:00Z,00000200,00000000,-000.14,0000.16,0000.03,-000.59,-000.06,0000.28,0000.14,0000.07,-000.10,18.6,25.2,03.3,02.2,0676.1,31.1
2021-07-02T01:10:00Z,00000200,00000000,0000.40,0000.24,0000.08,-000.21,0000.35,0000.11,0000.08,0000.08,-000.05,18.7,25.2,03.2,02.1,0676.1,31.1
2021-07-02T01:11:00Z,00000200,00000000,-000.04,-000.00,0000.21,0000.65,0000.26,0000.24,-000.30,-000.03,-000.20,18.8,25.3,03.1,02.1,0676.2,31.1
2021-07-02T01:12:00Z,00000200,00000000,0000.84,0000.15,0000.15,-000.22,0000.04,0000.05,-000.06,0000.18,0000.39,18.8,25.3,03.1,02.1,0676.2,31.2
2021-07-02T01:13:00Z,00000200,00000000,0000.01,0000.23,-000.02,0000.13,0000.11,0000.06,0000.11,-000.10,0000.15,18.9,25.3,03.0,02.0,0676.2,31.2
2021-07-02T01:14:00Z,00000200,00000000,-000.45,0000.23,0000.27,-000.00,-000.02,0000.39,0000.12,-000.02,-000.06,19.0,25.4,03.1,02.1,0676.2,31.2
2021-07-02T01:15:00Z,00000200,00000000,-000.11,0000.21,-000.03,-000.42,0000.04,-000.03,-000.04,-000.14,-000.38,19.0,25.4,03.0,02.0,0676.2,31.2
2021-07-02T01:16:00Z,00000200,00000000,0000.39,0000.35,0000.27,0000.26,0000.10,0000.22,-000.31,0000.28,0000.04,19.0,25.4,03.0,02.0,0676.2,31.2
2021-07-02T01:17:00Z,00000200,00000000,-000.60,0000.33,0000.35,-000.48,0000.38,0000.01,-000.08,-000.59,-000.01,19.0,25.4,03.0,02.0,0676.2,31.2
2021-07-02T01:18:00Z,00000200,00000000,0000.27,0000.16,0000.06,0000.01,0000.18,0000.14,0000.07,0000.16,-000.10,19.0,25.4,03.0,02.0,0676.1,31.1
2021-07-02T01:19:00Z,00000200,00000000,-000.28,0000.02,0000.28,0000.44,0000.18,0000.10,0000.41,0000.18,0000.26,18.9,25.3,02.9,02.0,0676.2,31.1
2021-07-02T01:20:00Z,00000200,00000000,-000.13,0000.06,0000.08,-000.17,0000.09,0000.29,-000.49,-000.40,-000.05,18.8,25.3,02.9,02.0,0676.1,31.1
2021-07-02T01:21:00Z,00000200,00000000,0000.67,-000.16,0000.17,0000.18,-000.00,0000.51,0000.08,0000.39,0000.08,18.8,25.3,02.9,01.9,0676.1,31.1
2021-07-02T01:22:00Z,00000200,00000000,0000.33,0000.19,-000.08,-000.11,0000.18,-000.02,0000.33,0000.18,0000.07,18.7,25.2,03.0,02.0,0676.1,31.1
2021-07-02T01:23:00Z,00000200,00000000,0000.64,0000.26,-000.07,0000.55,0000.38,0000.01,0000.04,0000.21,0000.19,18.8,25.2,02.9,01.9,0676.2,31.1
2021-07-02T01:24:00Z,00000200,00000000,0000.31,0000.40,-000.08,0000.08,0000.13,0000.13,-000.30,-000.47,-000.27,18.8,25.2,02.9,01.9,0676.2,31.1
2021-07-02T01:25:00Z,00000200,00000000,0000.03,-000.05,0000.08,-000.12,0000.22,0000.13,0000.13,0000.13,-000.19,18.8,25.3,02.8,01.9,0676.1,31.1
2021-07-02T01:26:00Z,00000200,00000000,0000.63,0000.15,0000.02,-000.01,-000.09,0000.27,0000.11,0000.16,0000.41,18.9,25.3,02.9,01.9,0676.2,31.1
2021-07-02T01:27:00Z,00000200,00000000,0000.41,0000.22,0000.05,0000.17,0000.19,0000.09,-000.24,-000.08,-000.25,19.0,25.4,02.8,01.9,0676.2,31.2
2021-07-02T01:28:00Z,00000200,00000000,0000.14,0000.14,-000.03,0000.02,-000.11,0000.11,0000.15,-000.05,0000.05,19.0,25.4,02.7,01.8,0676.2,31.2
2021-07-02T01:29:00Z,00000200,00000000,-000.42,-000.11,0000.26,-000.01,0000.22,0000.24,-000.16,0000.22,-000.06,19.1,25.4,02.7,01.8,0676.2,31.2
2021-07-02T01:30:00Z,00000200,00000000,-000.16,0000.16,0000.30,0000.51,0000.04,0000.50,-000.09,-000.41,0000.27,19.2,25.5,02.6,01.8,0676.2,31.2
2021-07-02T01:31:00Z,00000200,00000000,-000.31,0000.21,0000.26,0000.36,0000.15,0000.15,-000.16,0000.24,-000.35,19.2,25.5,02.5,01.7,0676.2,31.2
2021-07-02T01:32:00Z,00000200,00000000,0000.15,0000.04,0000.32,0000.50,0000.09,0000.29,0000.22,-000.08,0000.14,19.2,25.5,02.6,01.8,0676.2,31.2
2021-07-02T01:33:00Z,00000200,00000000,0000.14,0000.19,0000.44,0000.13,0000.14,0000.18,-000.05,-000.27,-000.32,19.1,25.5,02.5,01.7,0676.2,31.2
2021-07-02T01:34:00Z,00000200,00000000,-000.25,-000.10,0000.24,0000.52,0000.24,0000.15,-000.27,0000.20,0000.04,19.1,25.5,02.5,01.7,0676.2,31.1
2021-07-02T01:35:00Z,00000200,00000000,-000.24,0000.09,-000.08,0000.25,0000.35,0000.31,0000.15,-000.23,-000.19,19.0,25.4,02.5,01.7,0676.2,31.1
2021-07-02T01:36:00Z,00000200,00000000,-000.30,0000.47,0000.18,0000.43,0000.11,-000.20,-000.33,0000.13,0000.18,18.9,25.4,02.5,01.7,0676.2,31.1
2021-07-02T01:37:00Z,00000200,00000000,-000.01,-000.01,0000.11,-000.04,0000.04,-000.05,0000.59,0000.22,0000.32,18.9,25.3,02.5,01.7,0676.2,31.1
2021-07-02T01:38:00Z,00000200,00000000,0000.15,0000.03,0000.22,0000.12,0000.20,0000.42,0000.00,-000.13,-000.07,18.9,25.3,02.6,01.7,0676.2,31.1
2021-07-02T01:39:00Z,00000200,00000000,-000.06,0000.07,0000.02,0000.22,0000.17,-000.08,0000.32,0000.21,0000.25,18.9,25.3,02.6,01.7,0676.2,31.1
2021-07-02T01:40:00Z,00000200,00000000,0000.85,0000.39,-000.17,0000.35,0000.28,-000.06,-000.49,-000.31,-000.28,19.0,25.4,02.6,01.7,0676.2,31.1
2021-07-02T01:41:00Z,00000200,00000000,-000.44,0000.10,0000.24,0000.08,0000.21,-000.09,0000.20,0000.50,0000.35,19.0,25.4,02.5,01.7,0676.2,31.2
2021-07-02T01:42:00Z,00000200,00000000,-000.25,0000.43,0000.32,0000.19,0000.22,-000.19,0000.13,-000.07,-000.34,19.1,25.5,02.5,01.7,0676.2,31.2
2021-07-02T01:43:00Z,00000200,00000000,0000.30,0000.33,0000.22,-000.24,0000.14,-000.03,-000.28,-000.12,0000.08,19.1,25.5,02.4,01.6,0676.3,31.2
2021-07-02T01:44:00Z,00000200,00000000,-000.32,0000.35,-000.11,0000.55,0000.19,-000.06,0000.14,-000.13,-000.35,19.2,25.5,02.4,01.6,0676.2,31.2
2021-07-02T01:45:00Z,00000200,00000000,-000.24,0000.10,0000.15,0000.27,0000.22,-000.10,0000.04,0000.24,0000.39,19.2,25.5,02.4,01.6,0676.2,31.2
2021-07-02T01:46:00Z,00000200,00000000,0000.49,0000.30,0000.13,0000.02,0000.17,0000.24,-000.12,-000.39,-000.04,19.1,25.5,02.4,01.6,0676.2,31.2
2021-07-02T01:47:00Z,00000200,00000000,0000.28,0000.16,0000.16,0000.24,-000.02,0000.22,-000.16,0000.24,-000.20,19.1,25.5,02.3,01.6,0676.3,31.2
2021-07-02T01:48:00Z,00000200,00000000,0000.71,0000.21,0000.05,-000.15,-000.02,0000.21,-000.02,-000.26,0000.05,19.0,25.4,02.4,01.6,0676.2,31.1
2021-07-02T01:49:00Z,00000200,00000000,-000.24,0000.19,-000.09,-000.15,-000.01,0000.12,0000.08,-000.28,0000.04,18.9,25.4,02.2,01.5,0676.3,31.1
2021-07-02T01:50:00Z,00000200,00000000,0000.40,0000.16,0000.12,-000.11,0000.27,0000.41,0000.34,0000.34,-000.04,18.9,25.4,02.3,01.5,0676.2,31.1
2021-07-02T01:51:00Z,00000200,00000000,-000.22,0000.12,0000.08,0000.08,0000.21,-000.10,-000.62,0000.21,0000.11,18.8,25.3,02.3,01.6,0676.2,31.1
2021-07-02T01:52:00Z,00000200,00000000,0000.12,0000.10,0000.19,0000.03,-000.07,0000.34,0000.78,-000.08,-000.03,18.8,25.3,02.3,01.5,0676.2,31.1
2021-07-02T01:53:00Z,00000200,00000000,0000.16,0000.18,0000.38,0000.08,0000.26,0000.02,-000.09,0000.03,0000.15,18.7,25.2,02.5,01.6,0676.2,31.1
2021-07-02T01:54:00Z,00000200,00000000,0000.34,0000.26,0000.24,0000.55,0000.16,-000.04,0000.18,0000.10,0000.31,18.8,25.3,02.5,01.7,0676.2,31.1
2021-07-02T01:55:00Z,00000200,00000000,0000.00,-000.04,0000.26,0000.38,-000.00,-000.02,-000.05,0000.08,-000.49,18.8,25.3,02.5,01.7,0676.2,31.1
2021-07-02T01:56:00Z,00000200,00000000,0000.05,0000.51,0000.16,-000.46,0000.04,0000.10,0000.07,-000.03,0000.47,18.9,25.3,02.5,01.7,0676.2,31.1
2021-07-02T01:57:00Z,00000200,40000000,,,,,,,0000.36,0000.41,0000.26,19.0,25.4,02.8,01.9,0676.1,31.2
2021-07-02T01:58:00Z,00000200,60000000,,,,,,,-000.06,-000.10,-000.18,18.8,25.6,02.4,01.5,0675.2,31.2
2021-07-02T01:59:00Z,00000200,20000000,,,,,,,-000.07,0000.10,-000.30,18.8,25.7,02.3,01.5,0675.2,31.2
